View from above orbital plane
|
View from above satellite
|
Ground track
|
The orbit data is extracted from the following two-line orbital elements,
1 00053U 60009E 21027.38608119 -.00000084 00000-0 11618-4 0 9995
2 00053 47.2763 288.4206 0100433 22.7365 337.7829 12.17252298695845
Epoch (UTC): | 27 January 2021 09:15:57 |
Eccentricity: | 0.0100433 |
inclination: | 47.2763° |
perigee height: | 1524 km |
apogee height: | 1684 km |
right ascension of ascending node: | 288.4206° |
argument of perigee: | 22.7365° |
revolutions per day: | 12.17252298 |
mean anomaly at epoch: | 337.7829° |
orbit number at epoch: | 69584 |
The dashed part of the orbit path shows where the satellite is in the earth's shadow,
|
|